Home > Weather > Glennallen > Past weeks

Flag for USA Weather for the Past 2 Weeks in Glennallen, Alaska, USA

Now
38 °F

Partly sunny.


Feels Like: 34 °F
Forecast: 33 / 52 °F
Wind: 5 mph from Southeast

Location: Gulkana Airport

Current Time: May 1, 2016 at 7:48:28 AM

Latest Report: May 1, 2016 at 6:53 AM


Visibility: 10 mi

Pressure: 29.69 "Hg

Humidity: 70%

Dew Point: 29 °F

Location of GlennallenLocation

Historic Weather in Glennallen — Graph

°F

Glennallen Temperature Yesterday

Maximum temperature yesterday: 47 °F (at 4:53 PM)
Minimum temperature yesterday: 24 °F (at 4:53 AM)
Average temperature yesterday: 38 °F

High & Low Weather Summary for the Past Weeks

 TemperatureHumidityPressure
High58 °F (Apr 23, 3:53 PM)91% (Apr 18, 4:53 AM)30.19 "Hg (Apr 18, 4:53 AM)
Low22 °F (Apr 18, 5:53 AM)24% (Apr 20, 5:53 PM)29.52 "Hg (Apr 30, 5:53 PM)
Average42 °F55%29.84 "Hg
* Reported Apr 16 6:53 AM — May 1 6:53 AM, Glennallen, Weather by CustomWeather, © 2016

Note: Actual official high and low records may vary slightly from our data, if they occured in-between our weather recording intervals... More about our weather records

Advertising

Glennallen Weather History for the Previous 24 Hours

Scroll right to see more
 ConditionsComfort  
Time TempWeatherWind HumidityBarometerVisibility
6:53 AM
Sun, May 1
38 °FPartly sunny.5 mph70%29.69 "Hg10 mi
5:53 AM37 °FOvercast.6 mph73%29.68 "Hg10 mi
4:53 AM37 °FPassing clouds.7 mph73%29.66 "Hg10 mi
3:53 AM37 °FOvercast.6 mph73%29.65 "Hg10 mi
2:53 AM38 °FPartly cloudy.7 mph70%29.63 "Hg10 mi
1:53 AM39 °FPassing clouds.7 mph67%29.62 "Hg10 mi
12:53 AM40 °FPassing clouds.7 mph63%29.60 "Hg10 mi
11:53 PM
Sat, Apr 30
36 °FPassing clouds.3 mph64%29.59 "Hg10 mi
10:53 PM37 °FClear.No wind62%29.57 "Hg10 mi
9:53 PM39 °FPassing clouds.No wind62%29.55 "Hg10 mi
8:53 PM43 °FSunny.No wind53%29.53 "Hg10 mi
7:53 PM46 °FPassing clouds.No wind40%29.52 "Hg10 mi
6:53 PM46 °FSunny.8 mph38%29.53 "Hg10 mi
5:53 PM46 °FOvercast.6 mph37%29.52 "Hg10 mi
4:53 PM47 °FPartly sunny.6 mph36%29.53 "Hg10 mi
3:53 PM45 °FMostly cloudy.3 mph40%29.54 "Hg10 mi
2:53 PM45 °FOvercast.6 mph42%29.57 "Hg10 mi
1:53 PM42 °FOvercast.6 mph49%29.59 "Hg10 mi
12:53 PM42 °FPartly sunny.5 mph47%29.62 "Hg10 mi
11:53 AM43 °FPartly sunny.3 mph45%29.66 "Hg10 mi
10:53 AM41 °FOvercast.No wind49%29.70 "Hg10 mi
9:53 AM40 °FPartly sunny.6 mph49%29.73 "Hg10 mi
8:53 AM37 °FSunny.7 mph54%29.78 "Hg10 mi
7:53 AM35 °FSunny.8 mph59%29.82 "Hg10 mi
Weather by CustomWeather, © 2016

See weather overviewHow to use our weather pages